Find Starlink 32457

NORAD ID: 61717 Int'l Des: 2024-196 Owner: SPXS Country: US Constellation: starlink operational
LEOCIRCULAR

現在のビュー

3D地球を読み込み中...

About Starlink 32457

Starlink 32457 (NORAD 61717) is a starlink constellation satellite (v2 mini) launched Oct 30, 2024 by SPXS of US. It operates in LEO, CIRCULAR orbit with a mass of 730.00 kg.

次回通過

Passes for default location (London). Set your location on the main map for personalized predictions.

高度履歴

Loading altitude history...

軌道要素

1 61717U 24196L 26235.44818110 -.00000419 00000-0 -12655-5 0 9999
2 61717 53.1597 44.9475 0001601 127.7307 232.3841 15.34391933102717
Epoch: Aug 23, 2026 • Age: 21 hours

現在のステータス

高度 478.5 km
遠地点 / 近地点 N/A
速度 7.63 km/s
衛星直下点 -45.35°S, 175.16°E
打ち上げ日 Oct 30, 2024
運用期間 1.8 years
タイプ internet

技術仕様

分類 Payload
質量 730.00 kg
乾燥質量 700.00 kg
総質量 730.00 kg
長さ 0.30 m
直径 4.10 m
スパン 29.00 m
形状 Box + pan
製造者 SPXS
バスタイプ Starlink V2M
フェーズステータス In Orbit
所有者/国 SPXS/US

Most Searched